{"data":{"norad_id":69443,"intl_designator":"2026-127A","name":"STARLINK-37629","alt_names":[],"object_type":"PAYLOAD","status":"ACTIVE","operator":null,"country":"US","launch_date":"2026-06-08","launch_site_code":"AFETR","launch_vehicle":null,"mission":null,"orbit_class":"UNKNOWN","rcs_meters":null,"size_class":null,"mass_kg":null,"dimensions":null,"purposes":["comms"],"wikipedia_slug":null,"has_3d_model":false,"image_url":null,"decayed_at":null,"tle_current":{"epoch":"2026-09-20T02:55:24.472992Z","epoch_age_seconds":58101,"freshness":"FRESH","line1":"1 69443U 26127A   26263.12181103  .00014166  00000+0  42965-3 0  9996","line2":"2 69443  53.1574 167.5163 0001386  93.0046 267.1116 15.34396824 16132","mean_motion":15.34396824,"eccentricity":0.0001386,"inclination_deg":53.1574,"raan_deg":167.5163,"arg_perigee_deg":93.0046,"mean_anomaly_deg":267.1116,"bstar":0.00042965,"rev_number":1613,"period_min":93.847952333874,"perigee_km":461.76453819906,"apogee_km":463.66082173034,"semimajor_km":6840.8496799647,"source":"CELESTRAK","updated_at":"2026-09-20T09:00:44.198451Z"}}}